EHI
0 0 0 0 0 0 0 0 0 0 0 0 0 0 0 0 0 0 0 0 0 0 0 0 0 0 0 0 0 0 0 0 0 0 0 0 0 0 0 0 0 0 0
0 0 0 0 0 0 0 0 0 0 0 0 0 0 0 0 0 0 0 0 0 0 0 0 0 0 0 0 0 0 0 0 0 0 0 0 0 0 0 0 0 0 0
0 0 0 0 0 0 0 0 0 0 0 0 0 0 0 0 0 0 0 0 0 0 0 0 0 0 0 0 0 0 0 0 0 0 0 0 0 0 0 0 0 0 0
0 0 0 0 0 0 0 0 0 0 0 0 0 0 0 0 0 0 0 0 0 0 0 0 0 0 0 0 0 0 0 0 0 0 0 0 0 0 0 0 0 0 0
0 0 0 0 0 0 0 0 0 0 0 0 0 0 0 0 0 0 0 0 0 0 0 0 0 0 0 0 0 0 0 0 0 0 0 0 0 0 0 0 0 0 0
0 0 0 0 0 0 0 0 0 0 0 0 0 0 0 0 0 0 0 0 0 0 0 0 0 0 0 0 0 0 0 0 0 0 0 0 0 0 0 0 0 0 0
0 0 0 0 0 0 0 0 0 0 0 0 0 0 0 0 0 0 0 0 0 0 0 0 0 0 0 0 0 0 0 0 0 0 0 0 0 0 0 0 0 0 0
0 0 0 0 0 0 0 0 0 0 0 0 0 0 0 0 0 0 0 0 0 0 0 0 0 0 0 0 0 0 0 0 0 0 0 0 0 0 0 0 0 0 0
0 0 0 0 0 0 0 0 0 0 0 0 0 0 0 0 0 0 0 0 0 0 0 0 0 0 0 0 0 0 0 0 0 0 0 0 0 0 0 0 0 0 0
0 0 0 0 0 0 0 0 0 0 0 0 0 0 0 0 0 0 0 0 0 0 0 0 0 0 0 0 0 0 0 0 0 0 0 0 0 0 0 0 0 0 0
0 0 0 0 0 0 0 0 0 0 0 0 0 0 0 0 0 0 0 0 0 0 0 0 0 0 0 0 0 0 0 0 0 0 0 0 0 0 0 0 0 0 0
0 0 0 0 0 0 0 0 0 0 0 0 0 0 0 0 0 0 0 0 0 0 0 0 0 0 0 0 0 0 0 0 0 0 0 0 0 0 0 0 0 0 0
0 0 0 0 0 0 0 0 0 0 0 0 0 0 0 0 0 0 0 0 0 0 0 0 0 0 0 0 0 0 0 0 0 0 0 0 0 0 0 0 0 0 0
0 0 0 0 0 0 0 0 0 0 0 0 0 0 0 0 0 0 0 0 0 0 0 0 0 0 0 0 0 0 0 0 0 0 0 0 0 0 0 0 0 0 0
0 0 0 0 0 0 0 0 0 0 0 0 0 0 0 0 0 0 0 0 0 0 0 0 0 0 0 0 0 0 0 0 0 0 0 0 0 0 0 0 0 0 0
0 0 0 0 0 0 0 0 0 0 0 0 0 0 0 0 0 0 0 0 0 0 0 0 0 0 0 0 0 0 0 0 0 0 0 0 0 0 0 0 0 0 0
0 0 0 0 0 0 0 0 0 0 0 0 0 0 0 0 0 0 0 0 0 0 0 0 0 0 0 0 0 0 0 0 0 0 0 0 0 0 0 0 0 0 0
0 0 0 0 0 0 0 0 0 0 0 0 0 0 0 0 0 0 0 0 0 0 0 0 0 0 0 0 0 0 0 0 0 0 0 0 0 0 0 0 0 0 0
0 0 0 0 0 0 0 0 0 0 0 0 0 0 0 0 0 0 0 0 0 0 0 0 0 0 0 0 0 0 0 0 0 0 0 0 0 0 0 0 0 0 0
0 0 0 0 0 0 0 0 0 0 0 0 0 0 0 0 0 0 0 0 0 0 0 0 0 0 0 0 0 0 0 0 0 0 0 0 0 0 0 0 0 0 0
0 0 0 0 0 0 0 0 0 0 0 0 0 0 0 0 0 0 0 0 0 0 0 0 0 0 0 0 0 0 0 0 0 0 0 0 0 0 0 0 0 0 0
0 0 0 0 0 0 0 0 0 0 0 0 0 0 0 0 0 0 0 0 0 0 0 0 0 0 0 0 0 0 0 0 0 0 0 0 0 0 0 0 0 0 0
0 0 0 0 0 0 0 0 0 0 0 0 0 0 0 0 0 0 0 0 0 0 0 0 0 0 0 0 0 0 0 0 0 0 0 0 0 0 0 0 0 0 0
0 0 0 0 0 0 0 0 0 0 0 0 0 0 0 0 0 0 0 0 0 0 0 0 0 0 0 0 0 0 0 0 0 0 0 0 0 0 0 0 0 0 0
0 0 0 0 0 0 0 0 0 0 0 0 0 0 0 0 0 0 0 0 0 0 0 0 0 0 0 0 0 0 0 0 0 0 0 0 0 0 0 0 0 0 0
0 0 0 0 0 0 0 0 0 0 0 0 0 0 0 0 0 0 0 0 0 0 0 0 0 0 0 0 0 0 0 0 0 0 0 0 0 0 0 0 0 0 0
Wind_Speed
8 8 9 9 9 9 10 12 12 11 10 9 8 7 6 6 5 5 7 7 6 6 5 3 3 3 2 2 2 1 0 1 1 2 4 4 4 1 1 0 1 1 1
6 7 9 9 9 9 10 11 12 12 11 9 8 6 6 5 5 5 6 7 7 7 5 5 4 4 2 2 1 1 1 1 1 1 2 4 5 3 1 1 1 1 1
6 7 9 9 9 9 10 9 11 11 11 10 7 6 5 4 4 5 5 6 7 6 6 5 4 4 3 3 2 2 2 0 1 1 1 0 2 4 4 3 1 2 2
5 6 8 9 9 8 8 8 10 10 10 10 10 10 8 6 6 6 5 5 6 6 6 5 5 4 3 3 3 2 2 2 1 1 1 2 2 1 4 4 3 3 3
4 6 8 9 8 8 7 7 9 9 9 10 11 10 8 6 5 6 7 6 5 6 6 6 5 5 4 4 3 2 2 2 2 1 1 1 1 2 2 5 4 4 3
4 4 6 8 7 7 7 7 8 9 9 10 10 10 10 9 9 8 8 6 5 5 6 6 5 5 4 4 4 3 3 2 2 1 1 2 2 2 2 4 5 5 4
4 5 7 8 8 9 8 8 9 9 10 10 10 10 10 10 10 9 9 7 5 4 7 6 5 5 5 5 4 3 3 3 2 2 2 2 2 2 2 3 4 5 4
5 5 7 8 9 9 9 9 9 10 10 10 10 9 9 7 6 8 8 7 6 6 7 7 6 6 6 5 4 3 3 3 3 3 3 2 3 2 3 3 3 4 4
5 6 6 8 9 10 10 10 10 10 10 10 9 9 9 8 8 8 7 6 6 6 8 8 7 6 6 6 5 3 4 4 4 4 4 3 3 3 3 3 3 3 4
5 6 6 7 8 9 9 9 9 10 9 9 9 7 8 8 8 8 8 8 7 8 9 8 7 7 6 6 5 4 4 4 4 3 4 4 3 3 3 3 4 4 5
6 6 6 7 8 8 9 9 9 9 9 9 8 8 7 7 8 7 8 8 7 9 9 8 8 7 7 6 5 5 5 5 4 4 5 6 5 4 4 4 4 4 5
6 6 6 7 7 8 9 9 9 9 9 9 8 8 7 8 8 8 8 8 8 8 8 8 8 7 7 7 7 6 6 6 6 5 5 6 5 5 5 4 5 5 6
6 6 6 6 7 7 8 8 8 9 9 9 9 8 8 8 8 8 8 8 8 8 8 8 8 7 7 7 6 6 6 6 6 6 6 6 6 6 5 6 6 5 6
6 6 6 6 7 7 7 8 8 8 8 8 9 9 8 8 8 8 8 8 8 8 8 7 7 7 7 7 6 6 5 5 5 6 6 7 7 8 7 7 7 6 6
6 7 7 6 7 7 7 8 8 7 8 8 8 8 7 7 7 7 7 7 7 7 7 7 6 6 6 6 7 6 6 6 6 6 7 8 10 13 11 8 6 6 6
6 6 6 6 7 7 7 7 7 7 8 8 7 7 7 7 7 7 7 7 7 6 6 7 7 7 6 10 12 9 6 6 7 7 7 8 10 13 18 19 17 13 8
6 6 7 6 6 7 7 7 7 7 7 7 6 7 7 7 7 7 7 7 7 6 6 6 7 7 8 11 12 12 7 6 6 7 7 7 8 11 7 12 17 15 19
5 5 5 5 5 5 6 6 6 7 7 6 6 6 7 6 6 6 6 6 5 6 6 6 7 6 7 11 12 12 7 6 7 7 7 8 8 8 9 7 8 9 10
4 4 5 5 5 5 6 7 6 7 6 6 6 6 7 7 6 7 6 5 5 5 5 6 6 6 7 11 12 11 5 6 8 8 8 8 8 14 17 10 8 9 8
4 4 4 5 5 5 6 7 6 6 6 6 6 6 6 6 6 6 5 4 4 4 4 5 5 6 6 9 11 11 5 6 6 6 7 12 13 16 17 9 8 10 9
6 5 6 5 5 5 7 6 6 5 5 5 5 5 5 5 5 4 4 4 3 3 4 4 4 5 6 8 10 11 5 6 6 5 5 6 15 18 18 16 9 14 14
6 6 6 5 4 5 7 6 5 5 5 5 5 4 4 4 4 4 3 3 3 3 3 3 4 3 4 6 9 12 12 10 6 6 5 7 15 17 19 15 16 21 18
6 5 6 6 5 5 6 6 4 5 6 5 4 4 4 3 3 3 3 3 3 3 3 3 3 3 3 5 11 13 14 14 9 7 12 15 18 18 13 16 20 16 7
6 6 7 6 5 4 5 5 5 5 5 5 4 3 3 3 2 2 3 3 3 3 3 3 4 4 3 3 4 5 6 10 9 8 11 17 18 14 14 14 11 6 6
5 5 6 6 5 5 5 5 5 5 5 4 3 3 3 2 2 2 2 3 4 4 4 4 4 4 5 7 10 7 5 5 6 7 5 5 5 5 6 6 6 5 5
6 6 6 6 5 5 5 5 4 5 5 4 3 2 2 1 1 1 1 3 4 7 8 9 8 7 10 13 14 14 15 16 16 11 6 6 6 7 7 6 5 5 5
Wind_Direction
208 185 176 170 170 173 173 173 173 177 174 173 174 175 179 173 169 167 168 169 171 170 169 163 161 157 172 190 198 171 338 310 6 353 317 300 278 230 168 261 355 338 304
211 183 173 171 175 178 178 175 174 177 178 175 172 171 167 165 162 158 166 169 170 170 168 165 167 166 168 182 172 129 108 316 61 74 345 336 338 353 349 337 289 301 322
209 185 175 175 174 181 181 181 176 175 176 166 158 151 141 138 149 161 167 173 168 164 160 167 164 162 163 168 159 145 144 189 319 114 128 43 299 320 313 303 302 314 319
198 183 175 174 176 177 172 175 170 170 172 165 164 165 167 170 173 165 166 170 166 162 161 164 158 156 154 155 160 150 153 149 214 293 174 195 198 267 310 314 319 333 317
188 183 176 171 167 160 160 166 163 169 170 168 169 172 173 170 157 157 162 167 165 161 160 161 158 158 157 156 149 149 164 162 176 185 205 273 283 217 230 284 301 309 291
173 174 163 155 150 145 149 159 164 170 172 172 175 180 177 168 162 164 167 168 163 162 164 164 161 160 156 156 157 162 169 176 184 190 190 194 214 236 236 263 289 293 287
167 173 161 158 155 154 160 169 171 174 175 179 185 185 180 174 171 168 169 168 166 167 173 165 166 163 159 158 157 162 178 186 191 204 217 217 220 222 232 257 279 290 294
166 172 168 164 161 162 168 176 179 178 179 183 188 186 179 175 171 168 167 172 170 170 166 164 167 163 161 161 162 167 186 188 198 215 220 224 233 228 225 228 259 294 295
166 170 169 166 165 168 174 180 181 181 182 183 184 185 179 173 168 166 164 166 161 159 160 164 166 165 164 167 167 179 192 193 202 211 219 223 231 230 229 223 206 224 276
166 171 175 174 170 170 173 179 182 183 180 180 184 183 176 170 165 164 165 162 159 156 160 166 168 168 170 173 174 183 195 197 208 206 215 228 230 231 227 224 223 213 229
168 173 176 173 168 166 171 179 183 181 179 182 181 177 175 168 163 163 164 162 159 159 165 169 170 172 176 178 182 193 196 203 213 216 219 230 229 229 230 228 229 230 227
164 167 170 168 169 172 175 181 182 181 181 179 177 177 173 167 166 167 166 162 163 165 168 169 173 178 181 184 190 198 201 205 214 221 226 235 235 236 233 231 234 236 233
162 165 169 174 177 177 178 180 182 181 177 174 176 176 176 173 173 171 167 165 166 167 169 171 178 183 185 188 195 198 204 210 215 219 226 235 235 243 241 240 240 242 249
167 171 177 181 181 181 180 181 183 178 173 172 175 179 180 177 174 169 167 168 167 170 174 177 181 184 186 191 196 199 208 217 225 227 229 233 234 239 241 245 245 246 252
178 181 183 184 181 181 182 181 181 176 171 172 178 179 172 169 168 166 166 165 168 173 174 176 182 186 190 196 197 200 207 218 231 237 237 239 242 246 250 251 244 241 248
188 183 182 182 183 182 180 177 177 174 167 172 176 167 164 164 166 165 164 167 173 174 175 184 187 194 203 207 208 204 209 217 227 239 244 248 252 257 263 266 267 261 257
185 180 181 183 183 178 173 174 170 161 163 168 167 165 164 166 169 166 168 176 178 178 186 192 194 203 210 212 217 219 217 221 230 238 245 256 256 263 255 266 271 271 270
176 173 170 171 168 158 155 153 149 151 157 162 163 163 164 166 165 168 177 181 181 185 192 198 201 205 214 216 223 227 226 229 236 239 243 249 254 254 259 252 253 251 257
154 153 151 150 146 147 145 139 142 145 152 162 165 164 162 165 169 178 183 183 184 193 196 196 201 209 218 220 226 227 222 233 241 244 247 253 254 265 272 268 261 263 261
121 123 120 119 130 137 133 135 143 148 161 165 162 159 161 166 176 182 183 183 186 196 196 205 208 211 218 223 227 228 222 237 247 249 249 257 264 271 275 269 263 269 268
122 118 114 116 127 127 125 133 139 153 154 145 146 152 159 166 170 172 175 177 185 191 202 214 221 219 223 229 232 236 231 234 247 251 251 254 271 275 277 276 267 270 277
119 118 115 112 111 119 125 130 141 139 127 130 140 149 153 157 158 164 176 179 181 194 211 221 233 233 230 233 243 249 251 255 253 256 256 261 276 278 281 281 278 282 286
124 118 118 113 104 108 122 131 134 124 124 129 138 143 143 148 154 164 177 182 185 197 215 221 234 245 238 244 253 257 260 264 264 263 270 277 281 283 282 281 284 286 279
127 123 120 120 118 112 111 120 120 118 123 132 138 139 141 150 160 168 175 184 196 206 218 227 238 247 247 244 246 249 260 266 270 273 275 279 281 280 277 280 282 270 258
129 126 130 132 133 125 114 115 119 123 128 134 135 136 143 158 177 192 201 205 212 212 223 228 226 235 250 251 258 264 256 251 256 275 269 265 268 264 263 263 259 253 259
129 129 130 132 130 123 118 116 117 122 128 133 139 145 153 170 186 210 270 258 257 259 255 257 258 259 264 274 273 274 277 280 282 283 272 270 268 268 269 267 264 255 252